Date,TemperatureHighF,TemperatureAvgF,TemperatureLowF,DewpointHighF,DewpointAvgF,DewpointLowF,HumidityHigh,HumidityAvg,HumidityLow,PressureMaxIn,PressureMinIn,WindSpeedMaxMPH,WindSpeedAvgMPH,GustSpeedMaxMPH,PrecipitationSumIn
2013-1-1,45.0,40.7,37.0,45.0,38.9,26.0,100,94,61,0.00,40.00,7,4,13,1.16
2013-1-2,43.0,36.7,34.0,43.0,34.0,31.0,100,90,77,0.00,40.00,8,4,12,0.21
2013-1-3,42.0,35.5,31.0,33.0,27.9,21.0,93,75,51,0.00,40.00,7,4,10,0.00
2013-1-4,42.0,34.0,28.0,26.0,21.4,19.0,77,61,45,0.00,40.00,6,4,12,0.00
2013-1-5,46.0,36.3,27.0,34.0,24.5,20.0,91,64,39,0.00,40.00,5,3,11,0.04
2013-1-6,45.0,39.6,36.0,39.0,34.9,26.0,100,84,66,0.00,40.00,9,4,18,0.06
2013-1-7,48.0,37.7,29.0,29.0,26.7,23.0,82,66,46,0.00,40.00,9,4,18,0.00
2013-1-8,53.0,42.7,33.0,35.0,31.0,26.0,85,65,49,0.00,40.00,4,2,7,0.00
2013-1-9,48.0,46.2,43.0,48.0,42.0,33.0,100,86,58,0.00,40.00,5,3,10,0.10
2013-1-10,62.0,54.0,48.0,53.0,50.0,47.0,99,87,72,0.00,40.00,5,4,10,0.01
2013-1-11,65.0,62.2,57.0,62.0,58.4,51.0,98,88,74,0.00,40.00,7,5,16,0.03
2013-1-12,68.0,64.8,62.0,64.0,61.7,56.0,100,90,77,0.00,40.00,5,4,12,0.08
2013-1-13,66.0,63.2,60.0,61.0,58.0,56.0,100,84,73,0.00,40.00,8,4,15,1.08
2013-1-14,60.0,41.2,35.0,60.0,40.9,35.0,100,99,97,0.00,40.00,10,5,16,2.23
2013-1-15,40.0,38.1,36.0,40.0,38.1,36.0,100,100,99,0.00,40.00,7,4,12,2.43
2013-1-16,44.0,40.4,39.0,44.0,40.4,39.0,100,100,99,0.00,40.00,10,4,17,1.30
2013-1-17,40.0,36.0,32.0,40.0,33.0,27.0,100,90,66,0.00,40.00,13,8,25,0.56
2013-1-18,45.0,35.0,28.0,31.0,28.5,25.0,95,79,54,0.00,40.00,5,3,9,0.04
2013-1-19,52.0,38.6,27.0,34.0,29.5,27.0,99,73,40,0.00,40.00,5,4,12,0.00
2013-1-20,55.0,45.4,38.0,34.0,28.2,20.0,67,52,36,0.00,40.00,7,5,13,0.00
2013-1-21,45.0,36.8,27.0,20.0,14.7,8.0,51,41,26,0.00,40.00,8,6,20,0.00
2013-1-22,32.0,25.8,19.0,8.0,-0.1,-6.0,48,33,19,0.00,40.00,9,5,16,0.00
2013-1-23,45.0,33.5,24.0,25.0,9.5,-6.0,58,37,23,0.00,40.00,5,3,13,0.00
2013-1-24,42.0,33.5,26.0,32.0,13.4,1.0,69,45,26,0.00,40.00,8,5,17,0.00
2013-1-25,31.0,26.9,25.0,29.0,14.8,2.0,94,64,35,0.00,40.00,4,2,12,0.12
2013-1-26,45.0,35.8,30.0,34.0,31.4,28.0,100,86,54,0.00,40.00,7,3,9,0.23
2013-1-27,49.0,37.1,28.0,36.0,30.0,26.0,94,77,53,0.00,40.00,7,3,10,0.01
2013-1-28,54.0,47.7,42.0,49.0,40.3,31.0,86,76,66,0.00,40.00,5,3,11,0.01
2013-1-29,61.0,53.5,48.0,56.0,50.2,46.0,96,89,75,0.00,40.00,6,3,10,0.00
2013-1-30,66.0,56.6,41.0,62.0,53.6,34.0,100,90,74,0.00,40.00,10,6,33,3.41
2013-1-31,42.0,37.8,32.0,34.0,22.7,19.0,77,55,41,0.00,40.00,11,6,33,0.18